Simultaneous Nadir Overpasses (SNOs) Predictions

Prediction of SNOs between GOES-16 and TERRA Satellite Orbit:

Table of predicted SNOs for the next 14.0 days since TLE Epoch: 7/16/2022
Index Date Time (GOES-16) GOES-16 Lat,Lon TERRA Lat,Lon Distance(km) Time Diff (sec)
1 07/17/2022 03:02:29 0.03, -75.19 0.79, -71.63 405.20 80
2 07/17/2022 15:23:43 -0.03, -75.21 0.32, -76.79 179.28 80
3 07/19/2022 15:14:06 -0.03, -75.23 -0.30, -73.82 159.57 80
4 07/20/2022 03:35:28 0.03, -75.22 -0.79, -79.01 431.70 80
5 07/21/2022 15:01:49 -0.02, -75.25 -0.93, -70.86 499.13 80
6 07/22/2022 03:23:12 0.02, -75.24 -0.16, -76.05 92.01 80
7 07/24/2022 03:08:15 0.02, -75.27 0.48, -73.09 248.15 80
8 07/24/2022 15:29:28 -0.02, -75.29 0.62, -78.24 335.95 80
9 07/26/2022 15:19:50 0.01, -75.32 0.03, -75.27 6.12 80
10 07/28/2022 15:04:53 0.00, -75.36 -0.63, -72.31 346.23 80
11 07/29/2022 03:28:56 -0.00, -75.36 -0.44, -77.51 244.20 80
